• In Hungary
  • List of Countries
  • For 7 days
  • Water Temperature
  • Satellite Maps
  • Weather Map
  • News
  • Weather Widgets
  • user-avatar
    Login

    Hourly Weather Tomsk

    Today, 18 January, Thursday

    Time Temperature Precipitation Wind Pressure Humidity
    00:00 -10°C° 0 mm 4 mps 755 mmHg 93%
    01:00 -12°C° 0.2 mm 4 mps 756 mmHg 93%
    02:00 -14°C° 0.2 mm 3 mps 756 mmHg 93%
    03:00 -16°C° 0.2 mm 3 mps 757 mmHg 93%
    04:00 -18°C° 0.1 mm 3 mps 757 mmHg 93%
    05:00 -19°C° 0.1 mm 2 mps 758 mmHg 93%
    06:00 -19°C° 0 mm 1 mps 759 mmHg 96%
    07:00 -20°C° 0.1 mm 1 mps 760 mmHg 95%
    08:00 -20°C° 0.1 mm 1 mps 760 mmHg 94%
    09:00 -24°C° 0.1 mm 2 mps 761 mmHg 92%
    10:00 -21°C° 0.1 mm 1 mps 761 mmHg 91%
    11:00 -21°C° 0.1 mm 1 mps 761 mmHg 89%
    12:00 -20°C° 0.1 mm 1 mps 761 mmHg 88%
    13:00 -20°C° 0 mm 1 mps 762 mmHg 89%
    14:00 -20°C° 0 mm 1 mps 762 mmHg 89%
    15:00 -20°C° 0 mm 1 mps 762 mmHg 90%
    16:00 -21°C° 0 mm 1 mps 763 mmHg 91%
    17:00 -22°C° 0 mm 1 mps 763 mmHg 91%
    18:00 -23°C° 0 mm 1 mps 764 mmHg 92%
    19:00 -24°C° 0 mm 1 mps 764 mmHg 91%
    20:00 -25°C° 0 mm 1 mps 764 mmHg 90%
    21:00 -27°C° 0 mm 1 mps 764 mmHg 90%
    22:00 -27°C° 0 mm 1 mps 765 mmHg 89%
    23:00 -28°C° 0 mm 1 mps 765 mmHg 88%

    Tomorrow, 19 January, Friday

    Time Temperature Precipitation Wind Pressure Humidity
    00:00 -29°C° 0 mm 1 mps 765 mmHg 87%
    01:00 -30°C° 0 mm 1 mps 766 mmHg 87%
    02:00 -30°C° 0 mm 1 mps 766 mmHg 86%
    03:00 -31°C° 0 mm 1 mps 766 mmHg 86%
    04:00 -32°C° 0 mm 1 mps 766 mmHg 85%
    05:00 -32°C° 0 mm 1 mps 766 mmHg 85%
    06:00 -33°C° 0 mm 1 mps 767 mmHg 85%
    07:00 -33°C° 0 mm 1 mps 767 mmHg 86%
    08:00 -34°C° 0 mm 1 mps 767 mmHg 86%
    09:00 -34°C° 0 mm 1 mps 768 mmHg 86%
    10:00 -33°C° 0 mm 1 mps 768 mmHg 86%
    11:00 -31°C° 0 mm 1 mps 768 mmHg 85%
    12:00 -30°C° 0 mm 1 mps 768 mmHg 85%
    13:00 -29°C° 0 mm 1 mps 768 mmHg 87%
    14:00 -31°C° 0 mm 2 mps 769 mmHg 88%
    15:00 -31°C° 0 mm 2 mps 769 mmHg 90%
    16:00 -32°C° 0 mm 2 mps 769 mmHg 91%
    17:00 -35°C° 0 mm 2 mps 770 mmHg 92%
    18:00 -36°C° 0 mm 2 mps 770 mmHg 93%
    19:00 -37°C° 0 mm 2 mps 770 mmHg 93%
    20:00 -38°C° 0 mm 2 mps 771 mmHg 93%
    21:00 -38°C° 0 mm 2 mps 771 mmHg 93%
    22:00 -39°C° 0 mm 2 mps 771 mmHg 93%
    23:00 -39°C° 0 mm 2 mps 771 mmHg 93%

    Day after tomorrow, 20 January, Saturday

    Time Temperature Precipitation Wind Pressure Humidity
    00:00 -40°C° 0 mm 2 mps 772 mmHg 93%
    01:00 -40°C° 0 mm 2 mps 772 mmHg 93%
    02:00 -40°C° 0 mm 2 mps 772 mmHg 93%
    03:00 -40°C° 0 mm 2 mps 772 mmHg 93%
    04:00 -41°C° 0 mm 2 mps 773 mmHg 93%
    05:00 -41°C° 0 mm 2 mps 773 mmHg 93%
    06:00 -41°C° 0 mm 2 mps 773 mmHg 92%
    07:00 -41°C° 0 mm 2 mps 774 mmHg 92%
    08:00 -41°C° 0 mm 2 mps 774 mmHg 91%
    09:00 -41°C° 0 mm 2 mps 774 mmHg 91%
    10:00 -40°C° 0 mm 2 mps 774 mmHg 89%
    11:00 -41°C° 0 mm 3 mps 774 mmHg 88%
    12:00 -39°C° 0 mm 3 mps 774 mmHg 87%
    13:00 -39°C° 0 mm 3 mps 774 mmHg 88%
    14:00 -39°C° 0 mm 3 mps 774 mmHg 88%
    15:00 -38°C° 0 mm 3 mps 775 mmHg 89%
    16:00 -39°C° 0 mm 3 mps 775 mmHg 90%
    17:00 -41°C° 0 mm 3 mps 775 mmHg 91%
    18:00 -42°C° 0 mm 3 mps 776 mmHg 92%
    19:00 -42°C° 0 mm 3 mps 776 mmHg 93%
    20:00 -43°C° 0 mm 3 mps 776 mmHg 93%
    21:00 -43°C° 0 mm 3 mps 776 mmHg 94%
    22:00 -43°C° 0 mm 3 mps 776 mmHg 94%
    23:00 -44°C° 0 mm 3 mps 776 mmHg 93%

    21 January, Sunday

    Time Temperature Precipitation Wind Pressure Humidity
    00:00 -44°C° 0 mm 3 mps 776 mmHg 93%
    01:00 -44°C° 0 mm 3 mps 776 mmHg 93%
    02:00 -44°C° 0 mm 3 mps 777 mmHg 93%
    03:00 -44°C° 0 mm 3 mps 777 mmHg 92%
    04:00 -44°C° 0 mm 3 mps 777 mmHg 92%
    05:00 -44°C° 0 mm 3 mps 778 mmHg 92%
    06:00 -45°C° 0 mm 3 mps 778 mmHg 92%
    07:00 -45°C° 0 mm 3 mps 778 mmHg 92%
    08:00 -45°C° 0 mm 3 mps 778 mmHg 92%
    09:00 -45°C° 0 mm 3 mps 779 mmHg 92%
    10:00 -44°C° 0 mm 3 mps 779 mmHg 91%
    11:00 -44°C° 0 mm 4 mps 779 mmHg 91%
    12:00 -42°C° 0 mm 4 mps 779 mmHg 90%
    13:00 -42°C° 0 mm 4 mps 779 mmHg 90%
    14:00 -41°C° 0 mm 4 mps 779 mmHg 90%
    15:00 -41°C° 0 mm 4 mps 779 mmHg 90%
    16:00 -41°C° 0 mm 4 mps 780 mmHg 90%
    17:00 -42°C° 0 mm 4 mps 780 mmHg 91%
    18:00 -42°C° 0 mm 4 mps 780 mmHg 91%
    19:00 -44°C° 0 mm 4 mps 780 mmHg 91%
    20:00 -42°C° 0 mm 3 mps 781 mmHg 91%
    21:00 -42°C° 0 mm 3 mps 781 mmHg 91%
    22:00 -42°C° 0 mm 3 mps 781 mmHg 91%
    23:00 -42°C° 0 mm 3 mps 781 mmHg 90%

    22 January, Monday

    Time Temperature Precipitation Wind Pressure Humidity
    00:00 -42°C° 0 mm 3 mps 781 mmHg 90%
    01:00 -42°C° 0 mm 3 mps 781 mmHg 90%
    02:00 -42°C° 0 mm 3 mps 781 mmHg 89%
    03:00 -42°C° 0 mm 3 mps 781 mmHg 89%
    04:00 -42°C° 0 mm 3 mps 781 mmHg 89%
    05:00 -42°C° 0 mm 3 mps 781 mmHg 89%
    06:00 -42°C° 0 mm 3 mps 781 mmHg 89%
    07:00 -42°C° 0 mm 3 mps 781 mmHg 89%
    08:00 -42°C° 0 mm 3 mps 781 mmHg 89%
    09:00 -42°C° 0 mm 3 mps 781 mmHg 89%
    10:00 -41°C° 0 mm 3 mps 781 mmHg 88%
    11:00 -39°C° 0 mm 3 mps 781 mmHg 87%
    12:00 -38°C° 0 mm 3 mps 781 mmHg 86%
    13:00 -36°C° 0 mm 3 mps 780 mmHg 87%
    14:00 -35°C° 0 mm 3 mps 780 mmHg 87%
    15:00 -35°C° 0 mm 3 mps 780 mmHg 88%
    16:00 -36°C° 0 mm 3 mps 780 mmHg 89%
    17:00 -38°C° 0 mm 3 mps 780 mmHg 91%
    18:00 -39°C° 0 mm 3 mps 780 mmHg 92%
    19:00 -37°C° 0 mm 2 mps 780 mmHg 93%
    20:00 -38°C° 0 mm 2 mps 779 mmHg 93%
    21:00 -38°C° 0 mm 2 mps 779 mmHg 94%
    22:00 -39°C° 0 mm 2 mps 779 mmHg 95%
    23:00 -39°C° 0 mm 2 mps 779 mmHg 96%

    23 January, Tuesday

    Time Temperature Precipitation Wind Pressure Humidity
    00:00 -40°C° 0 mm 2 mps 778 mmHg 97%
    01:00 -40°C° 0 mm 2 mps 778 mmHg 97%
    02:00 -40°C° 0 mm 2 mps 778 mmHg 98%
    03:00 -40°C° 0 mm 2 mps 778 mmHg 98%
    04:00 -40°C° 0 mm 2 mps 778 mmHg 98%
    05:00 -40°C° 0 mm 2 mps 778 mmHg 98%
    06:00 -40°C° 0 mm 2 mps 778 mmHg 98%
    07:00 -40°C° 0 mm 2 mps 778 mmHg 98%
    08:00 -40°C° 0 mm 2 mps 778 mmHg 98%
    09:00 -40°C° 0 mm 2 mps 778 mmHg 98%
    10:00 -38°C° 0 mm 2 mps 778 mmHg 97%
    11:00 -37°C° 0 mm 2 mps 778 mmHg 97%
    12:00 -35°C° 0 mm 2 mps 777 mmHg 96%
    13:00 -35°C° 0 mm 2 mps 777 mmHg 96%
    14:00 -34°C° 0 mm 2 mps 777 mmHg 96%
    15:00 -34°C° 0 mm 2 mps 777 mmHg 96%
    16:00 -34°C° 0 mm 2 mps 777 mmHg 96%
    17:00 -35°C° 0 mm 2 mps 777 mmHg 97%
    18:00 -36°C° 0 mm 2 mps 778 mmHg 98%
    19:00 -36°C° 0 mm 2 mps 777 mmHg 98%
    20:00 -33°C° 0 mm 1 mps 777 mmHg 98%
    21:00 -33°C° 0 mm 1 mps 777 mmHg 98%
    22:00 -34°C° 0 mm 1 mps 777 mmHg 98%
    23:00 -34°C° 0 mm 1 mps 777 mmHg 98%
    Show more